Location: Shenandoah County Park
(38.9356°N, 78.4524°W)
Time: 17:13:23
(UTC-04:00)

Explorer 11/Cluster Stage 4 - Pass Details

Date: 28 February 2024
Orbit: 465 x 1219 km, 28.8° (Epoch: 21 April)

Event Time Altitude Azimuth Distance (km) Brightness Sun altitude
Rises 03:52:21 0° 263° (W) 4,106 - -34.6°
Reaches altitude 10° 03:55:48 10° 253° (WSW) 3,087 - -34.0°
Maximum altitude 04:02:02 27° 199° (SSW) 1,930 - -32.8°
Exits shadow 04:05:08 20° 161° (SSE) 2,173 8.8 -32.3°
Drops below altitude 10° 04:07:35 10° 144° (SE) 2,716 9.5 -31.8°
Sets 04:10:25 0° 132° (SE) 3,535 10.3 -31.3°
